Weather in Armyansk

Russia / Republic of Crimea     46°06′33″N   33°41′31″E
temp.,
°C
wind,
m/s
gust,
m/s
humid.,
%
clouds,
%
prec.,
mm/h
press.,
hPa
HPBL,
m
28 february, sun
sun2800:00+5nnw5981100 0.0 1019328
03:00+4nnw6985100 0.1 1020429
06:00+4nw5883100 0.1 1020539
09:00+4nw6987100 0.1 1021631
12:00+5nw788499 0.1 1022671
15:00+5nw677699 0.5 1022632
18:00+4nw5891100 0.4 1022512
21:00+3nw478294 0.5 1023406
1 march, mon
mon100:00+3nw4587100 0.1 1024339
03:00+3nw4583100 0.1 1024459
06:00+2nw347796 0.0 1024277
09:00+2n237798 0.0 1025179
12:00+4nne226658 0.0 1026581
15:00+5n236233 0.0 1027907
18:00+4n347272 0.1 1027677
21:00+4nne347682 0.1 1029167
2 march, tue
tue200:00+3n467869 0.0 1030207
03:00+2n568066 0.1 1031212
06:00+1n45770 0.0 1031171
09:00+2nnw346724 0.0 1031232
12:00+4w55635 0.0 1030793
15:00+4w786732 0.0 1028796
18:00+4wsw9117377 0.0 1025738
21:00+4wsw10148139 0.0 1024602
3 march, wed
wed300:00+5wsw1016810 0.0 1022457
03:00+5wnw913820 0.0 1021367
06:00+5nnw7118035 0.0 1021600
09:00+5nnw7116668 0.1 10241170
12:00+6n7106325 0.0 1025833
15:00+7nnw685513 0.0 1026662
18:00+6n35590 0.0 1026149
21:00+5n22670 0.0 102822
4 march, thu
thu400:00+3e33720 0.0 102866
03:00+3se33730 0.0 102774
06:00+3ssw33730 0.0 102682
09:00+4ssw56760 0.0 1025193
12:00+6wsw68710 0.0 1024526
15:00+6w78760 0.0 1022376
18:00+6sw69680 0.0 1020398
21:00+5ssw612780 0.0 1019430